TimeEDT,TemperatureF,Dew PointF,Humidity,Sea Level PressureIn,VisibilityMPH,Wind Direction,Wind SpeedMPH,Gust SpeedMPH,PrecipitationIn,Events,Conditions,WindDirDegrees,DateUTC
12:53 AM,46.9,33.1,59,29.97,10.0,West,4.6,-,N/A,,Clear,260,2012-10-31 04:53:00
1:53 AM,46.9,33.1,59,29.97,10.0,West,6.9,-,N/A,,Clear,270,2012-10-31 05:53:00
2:53 AM,44.1,33.1,65,29.98,10.0,West,3.5,-,N/A,,Clear,260,2012-10-31 06:53:00
3:53 AM,42.1,34.0,73,29.98,10.0,West,4.6,-,N/A,,Clear,280,2012-10-31 07:53:00
4:53 AM,39.9,32.0,73,29.97,10.0,Calm,Calm,-,N/A,,Clear,0,2012-10-31 08:53:00
5:53 AM,39.9,32.0,73,29.98,10.0,Calm,Calm,-,N/A,,Clear,0,2012-10-31 09:53:00
6:53 AM,39.0,33.1,79,29.99,10.0,Calm,Calm,-,N/A,,Clear,0,2012-10-31 10:53:00
7:53 AM,37.0,32.0,82,30.01,10.0,Calm,Calm,-,N/A,,Clear,0,2012-10-31 11:53:00
8:53 AM,44.1,36.0,73,30.02,10.0,Calm,Calm,-,N/A,,Clear,0,2012-10-31 12:53:00
9:53 AM,55.0,36.0,49,30.03,10.0,West,5.8,-,N/A,,Clear,260,2012-10-31 13:53:00
10:53 AM,63.0,36.0,37,30.03,10.0,WSW,6.9,-,N/A,,Clear,250,2012-10-31 14:53:00
11:53 AM,68.0,35.1,30,30.03,10.0,West,13.8,-,N/A,,Clear,280,2012-10-31 15:53:00
12:53 PM,71.1,37.0,29,30.01,10.0,WNW,12.7,18.4,N/A,,Clear,290,2012-10-31 16:53:00
1:53 PM,73.0,36.0,26,29.99,10.0,West,16.1,-,N/A,,Clear,270,2012-10-31 17:53:00
2:53 PM,75.0,36.0,24,29.95,10.0,West,16.1,24.2,N/A,,Clear,280,2012-10-31 18:53:00
3:53 PM,75.0,35.1,23,29.94,10.0,West,15.0,26.5,N/A,,Clear,260,2012-10-31 19:53:00
4:53 PM,75.0,37.0,25,29.93,10.0,WSW,13.8,-,N/A,,Clear,240,2012-10-31 20:53:00
5:53 PM,73.0,37.9,28,29.92,10.0,West,12.7,-,N/A,,Clear,260,2012-10-31 21:53:00
6:53 PM,69.1,39.0,33,29.93,10.0,WSW,10.4,-,N/A,,Clear,250,2012-10-31 22:53:00
7:53 PM,64.9,42.1,43,29.95,10.0,WSW,9.2,-,N/A,,Clear,240,2012-10-31 23:53:00
8:53 PM,63.0,44.1,50,29.96,10.0,WSW,8.1,-,N/A,,Clear,240,2012-11-01 00:53:00
9:53 PM,61.0,46.0,58,29.97,10.0,WSW,6.9,-,N/A,,Clear,250,2012-11-01 01:53:00
10:53 PM,59.0,46.9,64,29.98,10.0,WSW,5.8,-,N/A,,Clear,240,2012-11-01 02:53:00
11:53 PM,55.9,48.0,75,29.97,10.0,WSW,5.8,-,N/A,,Clear,250,2012-11-01 03:53:00